Wind_Speed
27 30 33 34 35 37 40 43 44 47 51 57 62 66 69 73 78 82 86 90 93 96 99 101 104 107 110 112 113 114 113 113 114 116 118 119 123 126 128 130 132 132 135 137
24 25 27 31 34 35 36 39 42 45 49 54 60 63 67 70 73 77 81 85 89 93 96 99 102 105 107 110 111 111 110 110 111 113 115 117 119 124 127 128 130 132 133 135
21 24 25 28 31 33 33 35 39 42 47 51 56 60 64 68 71 73 76 79 83 87 90 93 96 100 102 104 105 106 106 107 108 110 111 112 114 118 123 127 128 130 132 134
17 19 22 24 26 30 33 33 35 40 44 48 54 58 62 64 67 71 73 75 78 82 85 89 90 93 96 99 100 102 103 105 106 107 108 109 111 113 117 122 126 128 130 131
15 15 17 20 22 26 30 33 35 38 42 47 51 56 59 63 66 69 73 76 77 80 83 85 87 89 92 94 97 99 101 103 104 106 106 107 108 110 112 116 120 124 128 130
17 17 16 18 20 23 27 33 37 38 41 45 49 53 57 63 65 68 71 73 76 79 82 84 87 89 90 92 94 96 98 101 103 104 105 106 107 109 111 113 115 119 123 128
18 17 18 19 21 23 26 30 35 40 43 45 47 51 57 62 65 68 70 73 75 77 79 82 84 87 89 91 93 95 97 99 100 103 105 106 107 108 109 111 114 116 118 121
23 22 21 20 21 24 27 31 34 38 42 47 50 51 54 59 64 67 70 72 74 76 79 80 83 85 88 90 92 94 96 97 99 101 103 105 106 108 109 110 112 114 116 119
27 27 26 26 28 28 30 31 34 40 42 46 49 53 56 59 61 64 67 71 73 75 78 79 82 84 86 88 90 93 95 97 98 100 102 104 106 107 108 110 110 111 112 114
32 32 33 30 31 34 37 37 36 38 42 45 50 53 54 57 62 65 66 69 71 72 75 77 80 82 84 85 88 90 92 94 96 98 100 102 105 106 108 109 110 111 111 112
39 42 43 40 39 39 36 32 35 39 42 44 45 51 54 56 59 62 65 69 71 72 74 75 75 77 80 83 86 88 90 92 93 95 98 100 102 105 107 108 110 111 112 112
46 47 45 47 48 49 49 44 39 35 34 38 43 47 50 54 58 59 62 65 68 71 74 75 74 76 78 79 80 83 86 89 91 93 95 97 99 101 103 106 107 110 112 112
42 44 43 42 42 43 46 48 47 44 41 38 36 39 46 51 53 56 59 61 64 67 70 73 75 78 78 78 78 79 81 82 85 88 92 94 96 97 99 101 103 105 108 110
46 45 47 44 45 44 43 41 39 39 41 41 41 38 39 46 52 53 53 56 59 63 66 69 71 74 75 77 80 81 80 79 80 82 85 87 90 93 96 97 99 100 103 105
53 47 45 47 46 44 42 41 39 39 39 39 38 39 36 39 44 48 51 52 54 59 62 63 65 69 69 74 78 80 80 80 81 82 83 84 85 86 88 91 94 97 99 100
54 52 50 48 47 43 40 38 38 36 34 34 35 35 37 37 36 40 44 47 50 52 55 60 62 61 63 69 74 76 77 78 80 81 82 83 84 85 86 87 88 90 92 93
54 56 56 52 49 45 41 39 38 37 35 32 31 31 33 36 37 36 37 41 45 47 49 52 56 58 61 64 67 69 71 73 76 78 80 82 83 85 85 86 87 88 89 89
51 50 51 49 50 47 43 40 37 33 31 30 29 28 28 30 33 34 33 34 38 43 45 47 49 53 57 60 62 63 65 67 69 73 76 78 80 81 83 85 86 86 87 88
53 52 52 50 48 45 43 42 39 36 35 32 30 30 28 26 27 29 29 30 31 36 41 43 45 47 50 53 56 59 60 62 64 67 69 70 72 76 78 80 82 83 85 86
55 54 53 51 50 47 43 42 40 36 33 31 29 28 26 25 24 25 26 26 28 30 34 37 40 42 45 47 50 53 55 57 59 61 63 65 67 69 71 73 76 78 79 80
57 56 55 54 53 49 45 45 41 36 33 31 29 27 25 24 23 22 23 24 25 26 28 31 35 37 39 42 45 48 50 51 53 55 58 61 62 64 66 68 70 71 73 74
59 56 56 55 55 53 49 45 42 39 37 34 31 28 25 23 22 21 20 20 21 23 25 27 29 31 34 35 37 41 43 46 48 49 51 53 56 59 61 62 63 64 65 67
60 58 57 55 54 54 51 47 44 40 36 33 31 28 25 23 21 20 18 17 17 18 19 21 23 27 29 31 34 37 39 42 44 46 47 49 51 52 54 56 57 59 60 61
60 58 56 55 54 53 50 48 46 42 38 35 33 30 27 24 21 19 17 16 15 15 15 18 21 21 23 25 27 30 32 35 38 40 42 43 45 46 47 49 51 52 54 56
61 59 57 56 55 55 53 49 45 43 40 37 34 31 28 25 22 20 18 16 15 14 14 15 16 17 19 20 22 24 26 29 31 33 35 37 38 40 41 43 45 47 49 50
60 60 59 58 57 55 53 51 48 47 43 38 36 34 32 27 24 21 19 17 15 13 13 13 13 14 15 16 17 19 21 23 25 27 30 31 32 34 36 38 40 42 42 44
57 59 58 57 56 56 55 55 53 48 46 42 39 36 33 29 26 23 20 18 16 14 11 11 12 11 11 12 13 15 17 19 21 23 25 26 28 30 32 33 34 35 36 37
Wind_Direction
263 258 255 252 251 250 248 245 241 237 233 232 233 233 232 232 232 231 231 231 232 232 233 233 234 235 236 237 238 238 237 238 237 237 237 236 234 234 235 235 235 236 236 236
267 265 261 255 251 250 249 246 242 238 235 234 234 234 234 233 234 233 233 232 232 233 233 233 234 235 235 236 237 238 238 238 237 237 237 236 235 234 234 235 236 236 237 237
276 270 265 259 254 249 249 248 245 241 237 235 236 236 236 235 235 235 235 235 234 234 234 235 234 234 234 235 236 237 237 237 236 236 237 237 237 236 235 236 237 237 238 238
297 284 274 267 260 252 249 249 247 243 241 237 236 237 238 238 238 238 237 236 237 236 236 236 236 236 235 235 235 235 236 236 235 235 236 237 237 237 237 237 237 238 239 239
309 300 289 278 268 259 251 249 249 246 243 240 237 237 239 239 238 237 238 237 236 236 236 237 237 237 237 237 237 237 236 236 236 236 237 237 237 238 238 238 238 238 239 240
325 311 300 290 282 271 262 255 251 249 248 244 240 239 239 239 240 240 239 240 240 238 237 236 236 237 237 237 237 237 238 237 237 237 237 238 238 238 239 239 239 239 240 240
334 322 311 300 291 281 274 267 260 255 252 250 247 242 238 239 239 240 240 240 239 239 239 240 240 239 239 238 238 238 238 238 238 238 238 238 239 239 239 240 240 240 241 241
337 329 320 310 300 288 280 274 268 264 259 255 252 249 245 242 241 241 242 242 241 240 240 240 240 239 239 239 240 240 240 239 239 238 238 239 240 240 240 240 240 241 241 241
333 328 322 317 309 299 291 282 274 270 263 262 258 254 250 248 245 244 244 243 242 242 242 241 240 240 240 240 240 240 240 240 240 240 240 240 240 240 241 241 242 243 243 243
330 326 320 318 312 308 302 293 283 275 269 265 263 260 256 253 250 248 246 245 245 243 242 242 241 241 241 241 241 242 242 241 241 241 241 241 241 241 242 242 242 243 243 244
337 333 330 325 321 318 308 297 293 285 276 269 264 262 260 257 253 251 249 247 246 245 244 243 242 242 242 241 241 241 242 242 242 243 242 242 242 242 243 243 243 243 244 244
337 333 331 324 322 318 314 311 304 293 280 271 271 268 262 259 258 254 251 250 248 247 246 245 245 244 243 242 242 241 241 241 242 242 243 243 243 244 244 244 244 244 244 244
335 330 328 324 318 313 309 305 304 301 295 287 270 262 265 265 259 256 255 252 250 249 247 247 245 244 244 244 244 243 242 242 242 242 242 243 243 244 244 244 245 245 245 245
340 336 332 330 326 321 314 308 304 299 296 291 285 274 264 259 261 261 256 253 251 250 249 247 246 246 245 245 245 245 244 243 243 243 243 243 243 243 244 244 245 245 245 246
340 338 335 332 329 325 319 313 310 306 300 294 289 284 273 263 260 259 259 256 251 250 250 249 248 247 245 244 245 245 245 244 244 243 244 244 244 244 244 244 244 245 245 246
339 339 339 336 333 328 323 319 317 312 306 300 295 288 282 275 265 259 258 256 255 253 249 249 250 248 245 245 245 244 244 244 244 244 244 244 244 245 245 245 245 245 245 246
343 343 341 338 336 335 331 328 325 320 313 307 298 289 283 280 276 268 259 255 255 254 252 249 248 248 247 246 245 245 245 244 245 245 244 244 244 245 245 246 246 246 246 246
346 344 342 340 339 340 336 334 331 326 321 316 308 300 289 280 276 273 269 260 254 254 253 251 248 246 246 246 247 246 245 245 245 245 245 245 245 245 246 246 247 247 247 248
348 347 347 345 344 343 340 339 337 336 332 325 317 310 302 293 283 277 273 267 260 254 253 253 251 249 246 245 246 246 246 245 245 245 246 246 246 246 247 247 248 248 248 248
351 350 350 349 348 347 344 346 345 339 333 328 324 318 311 304 294 286 280 275 268 260 255 253 252 251 249 247 246 246 246 245 245 246 246 246 246 246 247 247 248 248 249 249
353 352 352 353 352 350 351 349 346 344 343 338 333 328 320 312 304 294 286 280 275 268 261 256 252 252 252 250 248 247 247 246 246 245 245 246 246 247 247 247 248 248 248 248
354 354 354 355 355 354 353 353 352 350 347 343 340 337 330 322 314 305 295 286 280 276 269 263 260 257 255 255 254 252 250 248 248 248 247 247 247 247 248 248 249 250 250 250
355 356 356 357 357 357 355 355 355 353 351 347 344 342 338 332 324 315 308 298 290 281 273 267 258 254 254 252 250 248 246 245 245 246 246 247 247 248 248 248 248 249 249 250
355 357 358 358 359 359 360 358 358 356 354 352 351 349 346 341 333 326 319 309 300 291 281 271 266 262 259 256 255 253 251 249 247 246 246 246 247 249 249 250 250 250 250 250
354 357 359 360 1 1 1 1 359 0 359 356 353 352 350 347 343 337 329 321 311 301 292 284 277 271 265 261 258 254 252 251 251 250 249 249 248 248 248 248 248 248 248 249
354 357 360 2 2 2 2 3 4 3 2 360 358 355 354 353 350 345 340 334 327 316 306 297 291 286 280 272 267 264 261 258 256 253 251 250 250 249 248 248 248 248 248 248
354 357 359 2 4 4 4 5 5 4 4 3 2 359 356 356 357 355 350 346 339 332 320 307 299 292 285 275 266 261 257 256 255 254 253 252 251 250 250 251 251 252 251 251
Height
10040 10040 10041 10043 10044 10046 10048 10050 10054 10058 10062 10065 10070 10076 10083 10090 10097 10105 10113 10122 10130 10139 10149 10159 10169 10179 10190 10200 10210 10220 10232 10244 10255 10267 10278 10290 10301 10313 10325 10336 10348 10359 10370 10382
10032 10031 10032 10032 10033 10035 10037 10039 10042 10045 10049 10051 10055 10060 10066 10072 10079 10087 10094 10102 10110 10118 10127 10135 10145 10155 10165 10174 10185 10196 10208 10220 10231 10242 10252 10263 10274 10286 10297 10309 10320 10332 10343 10354
10024 10024 10023 10022 10023 10025 10026 10028 10030 10033 10036 10039 10043 10046 10051 10056 10062 10068 10076 10084 10091 10099 10107 10115 10123 10132 10141 10151 10161 10172 10183 10194 10205 10217 10228 10239 10249 10260 10271 10283 10293 10304 10315 10326
10019 10017 10016 10014 10015 10016 10017 10018 10020 10021 10023 10027 10030 10032 10036 10042 10048 10053 10059 10066 10073 10080 10088 10095 10103 10112 10121 10129 10138 10148 10158 10168 10179 10190 10201 10212 10222 10233 10244 10255 10266 10276 10287 10297
10016 10013 10011 10009 10008 10008 10008 10008 10009 10010 10011 10013 10016 10018 10022 10025 10029 10034 10039 10045 10053 10059 10067 10075 10083 10091 10100 10109 10117 10127 10136 10146 10156 10166 10176 10187 10197 10207 10218 10228 10238 10248 10259 10269
10012 10009 10007 10004 10002 10000 9999 9998 9998 9998 9998 9999 10002 10005 10008 10008 10011 10016 10022 10028 10035 10040 10045 10051 10059 10067 10076 10085 10094 10103 10113 10123 10133 10142 10152 10162 10172 10182 10191 10201 10210 10220 10229 10239
10009 10005 10002 9999 9997 9994 9992 9990 9988 9987 9986 9986 9988 9989 9991 9991 9994 9997 10002 10007 10013 10019 10026 10034 10041 10049 10056 10063 10071 10080 10089 10099 10109 10119 10128 10137 10146 10155 10164 10174 10182 10192 10202 10211
10005 10001 9997 9993 9990 9986 9983 9980 9977 9975 9973 9972 9972 9974 9975 9976 9977 9980 9983 9987 9992 9998 10004 10012 10019 10027 10034 10042 10050 10057 10065 10074 10083 10092 10101 10111 10119 10129 10137 10146 10155 10163 10172 10180
10002 9996 9991 9986 9980 9976 9971 9968 9965 9961 9959 9957 9956 9956 9957 9958 9961 9963 9965 9967 9972 9978 9984 9990 9996 10002 10010 10017 10025 10032 10040 10049 10058 10067 10075 10084 10093 10103 10112 10121 10129 10138 10146 10154
9995 9989 9983 9978 9972 9965 9958 9953 9950 9947 9942 9941 9938 9937 9938 9941 9941 9943 9946 9949 9952 9957 9962 9966 9972 9980 9987 9995 10002 10009 10016 10025 10034 10042 10050 10058 10066 10075 10084 10093 10102 10110 10118 10127
9987 9977 9968 9963 9958 9952 9945 9941 9935 9928 9925 9922 9923 9918 9918 9918 9919 9920 9924 9927 9931 9936 9939 9944 9951 9957 9962 9969 9976 9984 9992 9999 10008 10016 10024 10032 10040 10048 10056 10065 10073 10081 10090 10099
9976 9967 9962 9952 9943 9934 9925 9921 9916 9913 9908 9906 9902 9899 9898 9896 9896 9898 9901 9903 9908 9911 9917 9921 9930 9934 9939 9945 9953 9960 9967 9974 9983 9990 9998 10006 10013 10021 10029 10037 10046 10053 10061 10070
9976 9964 9955 9947 9938 9929 9918 9907 9899 9894 9890 9886 9885 9884 9879 9875 9876 9878 9880 9882 9885 9889 9893 9897 9903 9909 9915 9923 9930 9936 9942 9950 9958 9965 9971 9979 9987 9995 10003 10010 10018 10026 10033 10041
9966 9955 9941 9933 9923 9913 9904 9895 9889 9882 9875 9869 9865 9864 9862 9859 9855 9856 9859 9862 9865 9867 9869 9874 9879 9884 9894 9901 9904 9909 9917 9926 9934 9940 9946 9953 9960 9968 9976 9984 9991 9998 10006 10013
9950 9943 9934 9922 9912 9901 9891 9881 9874 9867 9860 9853 9848 9844 9843 9842 9839 9838 9839 9841 9844 9845 9847 9853 9857 9861 9872 9875 9877 9883 9892 9900 9908 9915 9921 9928 9935 9942 9949 9956 9964 9970 9978 9986
9943 9932 9922 9912 9901 9891 9880 9870 9861 9853 9845 9839 9834 9829 9825 9823 9823 9823 9822 9822 9823 9826 9829 9831 9834 9842 9848 9849 9853 9860 9868 9876 9883 9890 9897 9904 9910 9916 9923 9930 9936 9943 9950 9957
9937 9921 9909 9899 9890 9878 9867 9858 9849 9840 9832 9826 9821 9816 9812 9807 9805 9806 9807 9807 9806 9808 9810 9812 9816 9820 9823 9826 9832 9839 9846 9853 9860 9866 9872 9878 9885 9891 9898 9904 9911 9917 9924 9932
9934 9922 9909 9895 9881 9868 9857 9848 9839 9830 9821 9815 9809 9804 9800 9796 9792 9790 9791 9792 9793 9792 9793 9795 9798 9801 9804 9807 9812 9818 9825 9831 9837 9841 9847 9855 9861 9867 9874 9880 9886 9892 9898 9905
9927 9914 9901 9888 9875 9863 9850 9839 9827 9818 9810 9804 9798 9793 9788 9785 9781 9779 9777 9778 9778 9778 9779 9780 9782 9784 9787 9790 9794 9799 9804 9810 9815 9821 9827 9833 9839 9844 9850 9855 9861 9867 9873 9879
9919 9907 9895 9882 9869 9856 9843 9832 9821 9812 9804 9796 9789 9784 9778 9774 9771 9769 9766 9765 9765 9765 9766 9767 9768 9770 9771 9775 9779 9782 9786 9791 9796 9801 9806 9812 9817 9822 9827 9832 9838 9844 9850 9855
9913 9901 9888 9875 9862 9849 9838 9825 9815 9806 9797 9790 9783 9776 9770 9765 9762 9760 9757 9755 9754 9754 9754 9754 9755 9757 9759 9761 9763 9766 9770 9774 9778 9783 9788 9792 9797 9801 9806 9811 9816 9821 9826 9831
9909 9897 9883 9870 9857 9844 9832 9822 9810 9800 9791 9783 9777 9770 9764 9759 9755 9752 9749 9747 9745 9744 9744 9744 9744 9746 9745 9748 9751 9754 9757 9760 9763 9767 9771 9774 9778 9782 9786 9791 9796 9801 9807 9812
9906 9893 9881 9868 9856 9843 9830 9818 9808 9798 9789 9781 9774 9767 9761 9755 9750 9746 9743 9740 9738 9736 9735 9734 9734 9733 9734 9735 9737 9739 9742 9745 9748 9752 9755 9759 9763 9766 9770 9774 9778 9782 9786 9790
9904 9891 9879 9866 9854 9842 9830 9817 9805 9795 9786 9778 9770 9763 9756 9751 9746 9742 9737 9734 9731 9729 9728 9726 9725 9726 9727 9727 9728 9730 9732 9734 9736 9739 9742 9746 9749 9752 9755 9759 9762 9766 9769 9772
9901 9889 9877 9864 9851 9839 9828 9817 9807 9796 9785 9776 9768 9760 9754 9748 9742 9738 9733 9729 9726 9723 9721 9719 9718 9718 9719 9719 9720 9720 9721 9723 9725 9728 9731 9733 9736 9739 9742 9744 9746 9749 9752 9756
9900 9887 9875 9864 9851 9840 9829 9817 9804 9793 9784 9775 9765 9758 9751 9745 9740 9735 9730 9726 9723 9720 9717 9715 9713 9713 9713 9713 9713 9713 9714 9714 9716 9717 9719 9722 9725 9727 9729 9731 9733 9735 9739 9742
9900 9888 9877 9865 9853 9841 9827 9814 9803 9794 9784 9774 9765 9758 9750 9744 9738 9733 9728 9724 9720 9716 9714 9711 9709 9708 9708 9707 9707 9707 9707 9707 9708 9709 9711 9713 9715 9716 9718 9720 9722 9725 9727 9730